Location: Buch am Rannenberg
(48.6989°N, 10.6399°E)
Time: 17:23:48
(UTC+00:00)

Cosmos 2084 Rocket - Pass Details

Date: 07 June 2020
Orbit: 557 x 624 km, 62.8° (Epoch: 12 July)

Event Time Altitude Azimuth Distance (km) Brightness Sun altitude
Rises 00:06:19 0° 315° (NW) 2,872 7.5 -17.7°
Reaches altitude 10° 00:08:36 10° 312° (NW) 1,973 6.5 -17.6°
Maximum altitude 00:13:00 60° 233° (SW) 710 3.6 -17.4°
Enters shadow 00:14:59 31° 165° (SSE) 1,096 4.3 -17.3°
